Location: Bratsk-Energetik
(56.3300°N, 101.7600°E)
Time: 21:43:15
(UTC+08:00)

ISS - Pass Details

Date: 12 May 2021
Orbit: 417 x 422 km, 51.6° (Epoch: 13 June)

Event Time Altitude Azimuth Distance (km) Brightness Sun altitude
Exits shadow 02:38:47 21° 234° (SW) 1,011 -2.3 -13.2°
Maximum altitude 02:40:32 37° 179° (S) 674 -3.2 -13.2°
Drops below altitude 10° 02:43:42 10° 110° (ESE) 1,508 -0.9 -13.0°
Sets 02:45:53 0° 102° (ESE) 2,374 0.2 -12.9°
